www.pogodaiklimat.ru

Погода и климат >> Архив погоды >> Антарктида >> Марамбио


ПОГОДА на Марамбио

  • Прогноз погоды на Марамбио
  • Монитор погоды на Марамбио

АРХИВ ПОГОДЫ на Марамбио

Время (UTC), дата Ветер
(напр.,м/с)
 
Видим.   Явления Облачность Т
(С)
Тd
(С)
f
(%)
Тe
(С)
Тes
(С)
Комфортность P
(гПа)
Po
(гПа)
Тmin
(С)
Tmax
(С)
R
(мм)
R24
(мм)
S
(см)
06 12.08 Ю 10 15 км {метель} ясно -22.4 -24.8 81 -37 -37 опасность
обморожения
1006.7 980.4
09 12.08 Ю 8 15 км 3/0
[Ci sp]
-24.0 -26.6 79 -37 -37 опасность
обморожения
1006.8 980.4
12 12.08 Ю 7 5000 м в посл. час туман туман 4/0
[Ac lent Ci sp]
-21.8 -24.2 81 -34 -34 опасность
обморожения
1007.6 981.0 -24.8 -17.7
15 12.08 З 2 15 км 9/0
[Ac As]
-19.3 -21.5 83 -25 -25 1008.3 981.6
18 12.08 СВ 2 800 м туман 8/0
[Ac und]
-17.7 -19.7 84 -23 -23 1007.8 981.3
21 12.08 СЗ 6 100 м переохл. туман ясно -19.0 -21.1 83 -29 -29 1008.0 981.3
00 13.08 С 6 15 км {туман} ясно -18.4 -20.5 83 -29 -29 1007.5 981.0 -22.4 -16.4
03 13.08 С 8 15 км ясно -18.0 -20.0 84 -30 -30 1006.2 979.8
06 13.08 СЗ 7 800 м туман ясно -15.1 -16.9 86 -25 -25 1003.6 977.6
09 13.08 С 8 4000 м дымка {туман} туман ясно -12.1 -13.6 89 -22 -22 1002.0 976.1
12 13.08 СЗ 8 8000 м дымка {туман} 3/0
[Ci fib]
-10.8 -12.1 90 -21 -21 1000.6 974.8 -20.8 -10.8
15 13.08 СЗ 5 15 км 3/0
[Ci sp]
-7.6 -8.6 93 -15 -14 998.8 973.2
18 13.08 СЗ 5 15 км 3/0
[Ci sp]
-6.9 -8.9 86 -14 -14 996.5 971.2
21 13.08 З 5 15 км ясно -6.0 -6.8 94 -13 -13 994.8 969.7
00 14.08 З 3 15 км 9/0
[Cs]
-2.4 -7.5 68 -7 -7 991.9 967.0 -11.6 -1.2
03 14.08 З 2 15 км 9/0
[Cs]
-5.3 -8.2 80 -10 -10 989.4 964.6
06 14.08 З 5 15 км 10/0
[Ac lent Cs]
-1.9 -5.7 75 -8 -8 987.5 963.0
09 14.08 Ю 10 15 км 8/0
[Cs]
-0.4 -2.8 84 -9 -9 987.5 963.0
12 14.08 ЮЗ 8 15 км 10/0
[Ac As]
-3.8 -4.3 96 -12 -12 989.2 964.8 -5.7 +0.9
15 14.08 З 3 15 км 9/0
[Ac As Cs]
-5.0 -5.6 96 -11 -10 988.0 963.4
18 14.08 В 4 15 км 10/0
[Ac As Cs]
-7.6 -8.6 93 -14 -14 986.0 961.4
21 14.08 СВ 5 15 км 10/0
[Ac As Cs]
-7.7 -8.7 93 -15 -15 985.3 960.9
00 15.08 С 4 15 км 10/0
[Ac trans Cs]
-8.8 -9.9 92 -15 -15 985.2 960.6 -9.4 -2.5
03 15.08 ЮВ 4 500 м туман 10/0 1200 м
[As op]
-9.9 -11.1 91 -17 -17 986.3 961.6
06 15.08 Ю 8 400 м снег {туман} туман 10/10 60 м
[Frnb]
-11.2 -12.6 89 -21 -21 989.6 964.6
09 15.08 Ю 8 800 м слаб. снег {туман} туман 10/10 240 м
[Frnb]
-12.3 -13.8 89 -22 -22 992.8 967.7
12 15.08 ЮВ 3 8000 м в посл. час туман туман 10/8 300 м
[St As trans]
-13.6 -15.2 88 -20 -20 995.4 970.1 -15.1 -6.8
15 15.08 СЗ 2 900 м туман 9/9 120 м
[St]
-11.5 -12.9 89 -16 -16 995.7 970.4
18 15.08 СЗ 7 <100 м туман 10/10 60 м
[St]
-12.2 -13.7 89 -22 -22 993.4 968.1
21 15.08 СЗ 6 100 м туман 5/5 60 м
[St Cs]
-13.9 -15.5 88 -23 -23 991.5 966.1
00 16.08 З 7 15 км {туман} 3/0
[Ci sp]
-12.0 -13.4 89 -22 -22 989.7 964.4 -15.1 -10.9
03 16.08 ЮЗ 13 3000 м сильный позёмок ясно -7.9 -8.9 93 -19 -19 989.0 964.0
06 16.08 Ю 9 15 км {метель} ясно -13.6 -15.2 88 -24 -24 990.6 965.2
09 16.08 Ю 11 15 км 3/0
[Ci sp]
-19.0 -21.1 83 -33 -33 опасность
обморожения
993.1 967.3
12 16.08 Ю 10 5000 м в посл. час туман туман 5/0
[Cs]
-24.1 -26.7 79 -39 -39 опасность
обморожения
1002.4 976.2 -24.7 -7.6
15 16.08 Ю 16 200 м сильная метель 8/0
[Ac As Cs]
-24.7 -27.3 79 -43 -43 опасность
обморожения
1007.0 980.9
18 16.08 Ю 17 500 м сильная метель ясно -24.8 -27.4 79 -43 -43 опасность
обморожения
1008.9 982.4
21 16.08 Ю 20 100 м сильная метель 1/1 150 м
[St]
-25.0 -27.7 78 -45 -45 опасность
обморожения
1010.7 983.8
00 17.08 Ю 17 15 км сильный позёмок ясно -24.9 -27.5 79 -44 -44 опасность
обморожения
1013.1 986.0 -25.5 -23.9
03 17.08 Ю 12 15 км позёмок ясно -24.3 -26.9 79 -41 -41 опасность
обморожения
1014.5 987.3
06 17.08 ЮЗ 3 15 км {метель} ясно -24.7 -27.3 79 -32 -32 опасность
обморожения
1013.9 986.6
09 17.08 СЗ 5 15 км 3/0
[Cs]
-23.6 -26.1 80 -35 -35 опасность
обморожения
1011.5 984.4
12 17.08 СЗ 7 15 км 8/0
[Cs]
-22.4 -24.8 81 -35 -35 опасность
обморожения
1008.5 981.6 -25.7 -22.1
15 17.08 СЗ 6 15 км 9/0
[Ac As Cs]
-14.9 -16.6 87 -24 -24 1005.4 979.0
18 17.08 З 7 15 км 6/0
[Ac lent Cs]
-6.3 -9.4 79 -15 -15 1002.2 976.2
21 17.08 ЮЗ 10 15 км 3/0
[Ac lent Cs]
-7.5 -8.4 93 -18 -18 1000.5 974.6
00 18.08 ЮЗ 5 15 км 3/0
[Ac lent Cs]
-1.8 -2.0 99 -9 -9 999.9 974.4 -23.3 -0.9
03 18.08 Ю 11 15 км 5/0
[Ac lent Cs]
-2.0 -2.3 98 -12 -12 999.4 974.2
06 18.08 Ю 11 15 км 9/0
[Cs]
-2.5 -2.8 98 -12 -12 998.7 973.8
09 18.08 ЮЗ 10 15 км 6/0
[Ac lent Cs]
-1.4 -1.6 99 -10 -10 998.0 973.2
12 18.08 ЮЗ 8 15 км 6/0
[Ac lent Cs]
-0.1 -0.7 96 -8 -8 996.7 972.2 -3.8 -0.1
15 18.08 ЮЗ 10 15 км 4/0
[Cs]
+0.6 +0.1 96 -8 -8 995.7 971.3
18 18.08 З 9 15 км 10/0
[Ac lent Cs]
-0.6 -1.2 96 -9 -9 993.3 968.9
21 18.08 Ю 7 15 км 10/0 1200 м
[As op Cs]
+0.7 -0.3 93 -6 -6 993.3 969.0
00 19.08 Ю 16 5000 м позёмок 10/0 1200 м
[As op]
-2.9 -3.3 97 -14 -14 997.1 972.6 -3.7 +1.1
03 19.08 Ю 14 2000 м позёмок 10/9 210 м
[St As op]
-7.0 -7.9 93 -19 -19 1003.3 978.5

 

Местоположение метеостанции Марамбио (Антарктида): широта -64.23 долгота -56.71 высота над уровнем моря 198 м.

В архиве по умолчанию представлена погода на Марамбио за последнюю неделю. Архивные данные за месяц целиком и за предыдущие месяцы, начиная с января 2011 года, Вы можете получить, выбрав интересующий диапазон дат из раскрывающегося списка и нажав кнопку "Ввод!".


*Определитесь, кто Вы:
робот инопланетянин человек

Внимание! Время в таблицах - всемирное. Для получения местного времени необходимо прибавить поправку, которая равна 0 ч.

Смотрите также архив погоды в соседних городах и на ближайших метеорологических станциях:

Погода на Эсперансе (Антарктида) (93 км)
Погода на Бернардо О`Хиггинс (Антарктида) (118 км)
Погода на Габриэль де Кастилья (Антарктида) (240 км)
Погода на Carlini Base (Антарктида) (242 км)
Погода на Captain Arturo Prat Base (Антарктида) (243 км)
Погода на King Sejong (Антарктида) (247 км)
Погода на Чанчэн (Антарктида) (251 км)
Погода на Dinamet-Уругвай (Антарктида) (252 км)
Погода на Беллинсгаузене (Антарктида) (252 км)
Погода на Острове Хуана Карлоса (Антарктида) (253 км)

Пояснения к столбцам:

Ветер - указаны скорость ветра в м/с - средняя за 10 мин, порывы в срок и между сроками (в фигурных скобках) и направление, откуда дует ветер: С - северный, СВ - северо-восточный, В - восточный, ЮВ - юго-восточный, Ю - южный, ЮЗ - юго-западный, З - западный, СЗ - северо-западный.
Видимость - горизонтальная дальность видимости в метрах или километрах. При видимости от 1 до 10 км при отсутствии осадков обычно наблюдается дымка, при ухудшении видимости до 1 км и менее - туман. В сухую погоду видимость может ухудшаться дымом, пылью или мглою.
Явления - указаны атмосферные явления, наблюдавшиеся в срок или в последний час перед сроком; фигурными скобками обозначены явления, наблюдавшиеся между сроками (за 1-3 часа до срока); квадратными скобками обозначены град или гололедные отложения с указанием их диаметра в мм.
Облачность - указаны через наклонную черту общая и нижняя облачность в баллах и высота нижней границы облаков в метрах; квадратными скобками обозначены формы облаков: Ci - перистые, Cs - перисто-слоистые, Cc - перисто-кучевые, Ac - высококучевые, As - высокослоистые, Sc - слоисто-кучевые, Ns - слоисто-дождевые, Cu - кучевые, Cb - кучево-дождевые. Подробнее классификацию облаков см. в Атласе облаков (PDF).
T - Температура воздуха - температура, измеренная на высоте 2 м над землей.
Td - Температура точки росы - температура, при понижении до которой содержащийся в воздухе водяной пар достигнет насыщения.
f - Относительная влажность воздуха - влажноcть воздуха, измеренная на высоте 2 м над землей.
Te - Эффективная температура - температура, которую ощущает одетый по сезону человек в тени. Характеристика душности погоды. При расчете учитывается влияние влажности воздуха и скорости ветра на теплоощущения человека.
Tes - Эффективная температура на солнце - температура, которую ощущает человек, с поправкой на солнечный нагрев. Характеристика знойности погоды. Зависит от высоты солнца над горизонтом, облачности и скорости ветра. Ночью, в пасмурную погоду, а также при ветре 12 м/с и более поправка равна нулю.
P - Атмосферное давление - приведенное к уровню моря атмосферное давление.
Po - Атмосферное давление - измеренное на уровне метеостанции атмосферное давление.
Tmin - Минимальная температура - минимум температуры воздуха на высоте 2 м над землей.
Tmax - Максимальная температура - максимум температуры воздуха на высоте 2 м над землей.
R - Количество осадков - Количество выпавших осадков за период времени, мм. При наведении курсора мыши на число - период времени, за который выпало указанное количество осадков.
R24 - Количество осадков - Количество выпавших осадков за 24 часа, мм.
S - Снежный покров - Высота снежного покрова, см. При наведении курсора мыши на число - состояние снежного покрова и степень покрытия местности в баллах.